Content
SEND FEEDBACK

Daily
Averages
Monthly
Summary
United States of America

ANN ARBOR, MICHIGAN


Home > North America > United States > Michigan
Elevation: 231 meters     Latitude: 42 17N     Longitude: 083 43W

WEATHER
 
SELECT A DAY
Number of Records: 203,923;   Date Range: 1/1/95 - 8/30/14
 
SHARE

PRINT THIS DATA

[ ← Previous Day ]
WEATHER ALMANAC - 25 APRIL, 2014
[ Next Day → ]
[ °F ]   °C
Weather ElementAverageHighLow
Temperature8.1 °C13.3 °C (6:53 pm)4.4 °C (11:53 pm)
Dewpoint2.8 °C6.1 °C (4:53 pm)-6.1 °C (1:53 am)
Humidity71.6 %86 % (9:53 am)39 % (1:53 am)
Barometer1006.8 hPa1010.2 hPa (1:53 am)1004.4 hPa (10:19 am)
Wind Speed11.3 km/h22.2 km/h (3:53 pm)
Wind Gust35.2 km/h (2:53 pm)
Weather ElementAverage
Visibility12.7 km
Wind DirectionSSW (191.2 °)

Weather ElementTotal
Precipitation12.95 mm
Heating Degree Days9.5 (Base 18.3)
Averaged from 34 records on 25 April, 2014
WEATHER CONDITIONS BREAKOUT
WIND DIRECTION BREAKOUT
WEATHER BY HOUR - 25 APRIL, 2014
[ °F ]   °C
Local TimeTemperatureDewpointHumidityBarometerVisibilityWind DirectionWind SpeedGust SpeedPrecipitationEventsConditions
1:53 AM7.2 °C-6.1 °C39 %1010.2 hPa16.1 kmEast (80°)14.8 km/hClear
2:53 AM7.2 °C-5.6 °C40 %1008.8 hPa16.1 kmEast (90°)14.8 km/hClear
3:53 AM7.2 °C-5.6 °C40 %1007.8 hPa16.1 kmEast (90°)14.8 km/hClear
4:53 AM7.8 °C-5 °C40 %1006.8 hPa16.1 kmEast (90°)13 km/hClear
5:53 AM8.3 °C-4.4 °C41 %1005.8 hPa16.1 kmEast (80°)14.8 km/hOvercast
6:53 AM8.3 °C-3.9 °C42 %1005.4 hPa16.1 kmEast (80°)13 km/hOvercast
7:53 AM7.2 °C-0.6 °C58 %1005.4 hPa8 kmEast (90°)11.1 km/h0.25 mmRainLight Rain
8:53 AM6.7 °C2.8 °C76 %1005.8 hPa16.1 kmCalm1.27 mmRainLight Rain
9:53 AM6.1 °C3.9 °C86 %1005.1 hPa6.4 kmENE (60°)7.4 km/h2.03 mmRainLight Rain
10:19 AM6.7 °C3.9 °C82 %1004.4 hPa8 kmNE (40°)5.6 km/h1.02 mmRainLight Rain
10:32 AM6.1 °C3.9 °C86 %1004.7 hPa6.4 kmCalm1.52 mmRainRain
10:39 AM6.7 °C3.9 °C82 %1004.7 hPa6.4 kmNE (50°)5.6 km/h1.78 mmRainRain
10:53 AM6.7 °C3.9 °C82 %1005.1 hPa4.8 kmNorth (10°)5.6 km/h2.54 mmRainRain
11:53 AM7.2 °C4.4 °C82 %1005.4 hPa12.9 kmNNW (330°)5.6 km/h1.02 mmRainLight Rain
12:10 PM7.2 °C5 °C86 %1005.1 hPa9.7 kmCalm0.25 mmRainLight Rain
12:14 PM7.2 °C5 °C86 %1005.1 hPa11.3 kmWNW (300°)5.6 km/h0.25 mmRainLight Rain
12:53 PM7.8 °C5.6 °C86 %1005.8 hPa9.7 kmNNW (340°)16.7 km/h1.02 mmRainLight Rain
1:08 PM7.8 °C5.6 °C86 %1005.4 hPa16.1 kmVariable5.6 km/h0 mmOvercast
1:27 PM7.8 °C5.6 °C86 %1005.4 hPa16.1 kmWNW (300°)14.8 km/h0 mmOvercast
1:53 PM7.8 °C5.6 °C86 %1006.4 hPa16.1 kmNW (320°)14.8 km/h0 mmOvercast
2:45 PM7.8 °C5.6 °C86 %1006.8 hPa9.7 kmNW (310°)14.8 km/hOvercast
2:53 PM7.2 °C5 °C86 %1007.5 hPa9.7 kmNW (310°)18.5 km/h35.2 km/hOvercast
3:24 PM7.8 °C5 °C83 %1007.1 hPa8 kmNW (310°)16.7 km/hHaze
3:53 PM8.3 °C5.6 °C83 %1007.5 hPa9.7 kmNW (320°)22.2 km/h31.5 km/hHaze
4:53 PM9.4 °C6.1 °C80 %1008.1 hPa11.3 kmNW (320°)16.7 km/hOvercast
5:15 PM10.6 °C6.1 °C74 %1007.8 hPa12.9 kmNW (320°)20.4 km/h31.5 km/hMostly Cloudy
5:33 PM11.7 °C6.1 °C69 %1007.8 hPa16.1 kmWNW (300°)14.8 km/h33.3 km/hScattered Clouds
5:53 PM12.2 °C6.1 °C66 %1007.8 hPa16.1 kmWNW (300°)16.7 km/hPartly Cloudy
6:53 PM13.3 °C5.6 °C60 %1008.5 hPa16.1 kmNW (310°)18.5 km/hClear
7:53 PM13.3 °C3.9 °C53 %1008.5 hPa16.1 kmNW (310°)9.3 km/hClear
8:53 PM9.4 °C3.3 °C66 %1009.5 hPa16.1 kmWest (280°)9.3 km/hClear
9:53 PM6.7 °C2.8 °C76 %1010.2 hPa16.1 kmWSW (250°)11.1 km/hClear
10:53 PM6.7 °C2.8 °C76 %1010.2 hPa16.1 kmWSW (240°)5.6 km/hClear
11:53 PM4.4 °C2.2 °C86 %1010.2 hPa16.1 kmWest (270°)5.6 km/hClear
Hourly data recorded from KARB, located 0 kilometers away from Ann Arbor, Michigan







STORIES FROM OUR PARTNERS